Terminal Aerodrome Forecast
Issued by NWS Glasgow, MT

Home | Current Version | Previous Version | Text Only | Print | Product List | Glossary On
Versions: 1 2 3 4 5 6 7 8 9 10 11 12 13
000
FTUS45 KGGW 011100
TAFGGW
TAF
KGGW 011125Z 0112/0212 07007KT P6SM SCT150
     FM011400 03009KT P6SM FEW250
     FM020200 07006KT P6SM SCT200=

USA.gov is the U.S. government's official web portal to all federal, state and local government web resources and services.